Starlink 30427

operational
NORAD ID: 57865 Int'l Des: 2023-144 Owner: SPXS Country: US Constellation: starlink
LEOCIRCULAR

Starlink 30427について

説明を読み込み中...

リアルタイム位置

3D地球を読み込み中...

次回通過

高度履歴

Altitude vs Time

uPlot chart will show altitude changes over time

軌道要素

1 57865U 23144B 25259.10217883 .00001646 00000-0 13689-3 0 9995
2 57865 43.0033 156.5246 0000942 273.1293 86.9442 15.02544342111306
Epoch: Sep 16, 2025 • Age: 23 hours

現在のステータス

高度 562.0 km
速度 7.59 km/s
衛星直下点 39.22°N, 104.7°W
打ち上げ日 Sep 16, 2023
運用期間 2 years
タイプ internet

技術仕様

分類 Payload
質量 730.00 kg
乾燥質量 700.00 kg
総質量 730.00 kg
長さ 0.30 m
直径 4.10 m
スパン 29.00 m
形状 Box + pan
製造者 SPXS
バスタイプ Starlink V2M
フェーズステータス In Orbit
所有者/国 SPXS/US

大規模コンステレーション

Loading constellations...